{"data":{"norad_id":62739,"intl_designator":"2025-014E","name":"STARLINK-32796","alt_names":[],"object_type":"PAYLOAD","status":"ACTIVE","operator":null,"country":"US","launch_date":"2025-01-21","launch_site_code":"AFETR","launch_vehicle":null,"mission":null,"orbit_class":"UNKNOWN","rcs_meters":null,"size_class":null,"mass_kg":null,"dimensions":null,"purposes":["comms"],"wikipedia_slug":null,"has_3d_model":false,"image_url":null,"decayed_at":null,"tle_current":{"epoch":"2026-09-21T00:16:02.063136Z","epoch_age_seconds":127200,"freshness":"FRESH","line1":"1 62739U 25014E   26264.01113499  .00010051  00000+0  37423-3 0  9995","line2":"2 62739  43.0016 130.9399 0001476 269.6187  90.4496 15.27583482 93137","mean_motion":15.27583482,"eccentricity":0.0001476,"inclination_deg":43.0016,"raan_deg":130.9399,"arg_perigee_deg":269.6187,"mean_anomaly_deg":90.4496,"bstar":0.00037423,"rev_number":9313,"period_min":94.266533840407,"perigee_km":482.02596016997,"apogee_km":484.05137922766,"semimajor_km":6861.1756696988,"source":"CELESTRAK","updated_at":"2026-09-22T09:00:49.656563Z"}}}